Regional Weather Roundup
Issued by NWS Lake Charles, LA

Home | Current Version | Previous Version | Text Only | Print | Product List | Glossary On
Versions: 1 2 3 4 5 6 7 8 9 10 11 12 13 14 15 16 17 18 19 20 21 22 23 24 25 26 27 28 29 30 31 32 33 34 35 36 37 38 39 40 41 42 43 44 45 46 47 48 49 50
000
ASUS44 KLCH 181610
RWRLCH
RWRLCH
REGIONAL WEATHER ROUNDUP
NATIONAL WEATHER SERVICE LAKE CHARLES LA
1100 AM CDT THU SEP 18 2014

Note: "fair" indicates few or no clouds below 12,000 feet with no
significant weather and/or obstructions to visibility.


ACROSS SOUTHEAST TEXAS

CITY           SKY/WX    TMP DP  RH WIND       PRES   REMARKS
BEAUMONT       CLOUDY    78  74  87 E6        29.93R
BEAUMONT CITY  CLOUDY    76  74  93 S3        29.94R
ORANGE         CLOUDY    78  78 100 E5        29.95R
JASPER         RAIN      74  73  95 E5        29.96S
$$

ACROSS CENTRAL LOUISIANA

CITY           SKY/WX    TMP DP  RH WIND       PRES   REMARKS
LEESVILLE      LGT RAIN  77  74  90 NE3       29.95R
FULLERTON        N/A     82  73  74 VRB5      29.92S
ALEXANDRIA INT CLOUDY    81  73  76 CALM      29.93S
ESLER FIELD    CLOUDY    82  73  74 CALM      29.95S
DERIDDER       CLOUDY    76  74  93 CALM      29.96S FOG
OAKDALE        CLOUDY    78  74  87 CALM      29.95R
OPELOUSAS        N/A     79  73  82 E5        29.93F
$$

ACROSS SOUTHWEST AND SOUTH CENTRAL LOUISIANA

CITY           SKY/WX    TMP DP  RH WIND       PRES   REMARKS
SULPHUR        CLOUDY    79  77  93 E3        29.94R
LAKE CHARLES   CLOUDY    78  76  93 E6        29.93R
CHENNAULT INT  PTSUNNY   79  75  89 E5        29.94S
CAMERON PHI    MOSUNNY   81  77  89 E7        29.96R
DEQUINCY       CLOUDY    76  74  92 NE3       29.94R
JENNINGS         N/A     77  75  95 E7        29.93S
LAFAYETTE      CLOUDY    81  75  82 NE3       29.94F
NEW IBERIA     CLOUDY    83  74  74 E6        29.94F
ABBEVILLE        N/A     79  74  84 NE3       29.94S
PATTERSON      CLOUDY    81  75  83 E5        29.96F
SALT POINT       N/A     84  77  79 VRB3      29.93S
$$

SELECTED SITES ACROSS THE REGION

CITY           SKY/WX    TMP DP  RH WIND       PRES   REMARKS
HOUSTON BUSH   TSTM      75  74  96 SE9       29.92S
HOUSTON HOBBY  LGT RAIN  75  74  96 E5        29.90S FOG
GALVESTON      CLOUDY    81  78  91 E3        29.91R
COLLEGE STAT   PTSUNNY   77  74  90 E7        29.90S
CONROE         LGT RAIN  74  73  97 SE3       29.94S
HUNTSVILLE     CLOUDY    76  74  93 VRB3      29.93S
LUFKIN         CLOUDY    82  73  74 E5        29.94S
SHREVEPORT     CLOUDY    80  72  76 VRB3      29.94S
MONROE         CLOUDY    83  73  72 CALM      29.95S
NATCHEZ MS     CLOUDY    79  75  89 CALM      29.96S
BATON ROUGE    CLOUDY    80  74  81 E6        29.95S
N.O. INTL ARPT CLOUDY    85  81  88 E7        29.94F HX 100
SLIDELL        PTSUNNY   85  72  65 SE3       29.94F
$$

MARINE REPORTS

STATION/POSITION TIME  TEMP    WIND        PRES    VSBY  WAVE
                       AIR SEA DIR/SP/G                  HT/PER
                 (UTC) (F)     (DEG/KT/KT) (MB)    (MI)  (FT/S)
BUOY 30 S HIGH I 1600   81 84  140/  4/  6 1012.6R         1/ 6
SEA RIM ST PARK  1600   75     260/  3/  3 1014.5R
PORT ARTHUR      1600      83   80/  3/  5 1013.5S
SABINE PASS N    1600   80 82   90/  3/  5 1013.6R
TEXAS POINT      1600   79 82   80/  5/  6 1013.7R
CALCASIEU PASS   1600   80 83  110/  8/ 10 1014.5R
LK CHARLES BEACH 1600   79 84              1013.7R
MARSH ISLAND     NOT AVBL
FRESH WATER LOCK 1600   79 84   60/  6/  8 1013.5F
AMERADA PASS     1600   80 84   90/  4/  7 1013.8F
$$



USA.gov is the U.S. government's official web portal to all federal, state and local government web resources and services.